Time,TemperatureF,DewpointF,PressureIn,WindDirection,WindDirectionDegrees,WindSpeedMPH,WindSpeedGustMPH,Humidity,HourlyPrecipIn,Conditions,Clouds,dailyrainin,SolarRadiationWatts/m^2,SoftwareType,DateUTC
2013-02-15 00:11:00,32.0,30.0,-100.00,NNE,22,0.0,1.0,92,0.00,,,0.00,0.000000,,2013-02-15 08:11:00,
2013-02-15 00:21:00,32.0,30.0,-100.00,NNE,22,0.0,1.0,92,0.00,,,0.00,0.000000,,2013-02-15 08:21:00,
2013-02-15 00:31:00,32.0,30.0,-100.00,NNE,22,0.0,1.0,92,0.00,,,0.00,0.000000,,2013-02-15 08:31:00,
2013-02-15 00:41:00,32.0,30.0,-100.00,NNE,22,0.0,1.0,92,0.00,,,0.00,0.000000,,2013-02-15 08:41:00,
2013-02-15 01:12:00,32.0,30.0,-100.00,NNE,22,0.0,0.0,93,0.00,,,0.00,0.000000,,2013-02-15 09:12:00,
2013-02-15 01:21:00,32.0,30.0,-100.00,NNE,22,0.0,0.0,93,0.00,,,0.00,0.000000,,2013-02-15 09:21:00,
2013-02-15 01:31:00,32.0,30.0,-100.00,NNE,22,0.0,0.0,93,0.00,,,0.00,0.000000,,2013-02-15 09:31:00,
2013-02-15 01:41:00,32.0,30.0,-100.00,NNE,22,0.0,0.0,93,0.00,,,0.00,0.000000,,2013-02-15 09:41:00,
2013-02-15 01:51:00,32.0,30.0,-100.00,NNE,22,0.0,0.0,93,0.00,,,0.00,0.000000,,2013-02-15 09:51:00,
2013-02-15 02:21:00,32.0,30.0,-100.00,ENE,71,0.0,2.0,94,0.00,,,0.00,0.000000,,2013-02-15 10:21:00,
2013-02-15 02:31:00,32.0,30.0,-100.00,ENE,71,0.0,2.0,94,0.00,,,0.00,0.000000,,2013-02-15 10:31:00,
2013-02-15 02:41:00,32.0,30.0,-100.00,ENE,71,0.0,2.0,94,0.00,,,0.00,0.000000,,2013-02-15 10:41:00,
2013-02-15 02:51:00,32.0,30.0,-100.00,ENE,71,0.0,2.0,94,0.00,,,0.00,0.000000,,2013-02-15 10:51:00,
2013-02-15 02:52:00,32.0,30.0,-100.00,ENE,71,0.0,1.0,94,0.00,,,0.00,0.000000,,2013-02-15 10:52:00,
2013-02-15 03:11:00,32.0,30.0,-100.00,ENE,71,0.0,1.0,94,0.00,,,0.00,0.000000,,2013-02-15 11:11:00,
2013-02-15 03:22:00,32.0,30.0,-100.00,ENE,71,0.0,1.0,94,0.00,,,0.00,0.000000,,2013-02-15 11:22:00,
2013-02-15 03:31:00,32.0,30.0,-100.00,ENE,71,0.0,1.0,94,0.00,,,0.00,0.000000,,2013-02-15 11:31:00,
2013-02-15 03:42:00,32.0,30.0,-100.00,ENE,71,0.0,1.0,94,0.00,,,0.00,0.000000,,2013-02-15 11:42:00,
2013-02-15 03:52:00,32.0,30.0,-100.00,ENE,71,0.0,0.0,94,0.00,,,0.00,0.000000,,2013-02-15 11:52:00,
2013-02-15 04:21:00,32.0,30.0,-100.00,ENE,71,0.0,0.0,94,0.00,,,0.00,0.000000,,2013-02-15 12:21:00,
2013-02-15 04:32:00,32.0,30.0,-100.00,ENE,71,0.0,0.0,94,0.00,,,0.00,0.000000,,2013-02-15 12:32:00,
2013-02-15 04:42:00,32.0,30.0,-100.00,ENE,71,0.0,0.0,94,0.00,,,0.00,0.000000,,2013-02-15 12:42:00,
2013-02-15 05:11:00,31.0,30.0,-100.00,ENE,71,0.0,0.0,95,0.00,,,0.00,0.000000,,2013-02-15 13:11:00,
2013-02-15 05:21:00,31.0,30.0,-100.00,ENE,71,0.0,0.0,95,0.00,,,0.00,0.000000,,2013-02-15 13:21:00,
2013-02-15 05:31:00,31.0,30.0,-100.00,ENE,71,0.0,0.0,95,0.00,,,0.00,0.000000,,2013-02-15 13:31:00,
2013-02-15 05:41:00,31.0,30.0,-100.00,ENE,71,0.0,0.0,95,0.00,,,0.00,0.000000,,2013-02-15 13:41:00,
2013-02-15 05:51:00,31.0,30.0,-100.00,ENE,71,0.0,0.0,95,0.00,,,0.00,0.000000,,2013-02-15 13:51:00,
2013-02-15 05:52:00,30.0,29.0,-100.00,ENE,71,0.0,0.0,96,0.00,,,0.00,0.000000,,2013-02-15 13:52:00,
2013-02-15 06:21:00,30.0,29.0,-100.00,ENE,71,0.0,0.0,96,0.00,,,0.00,0.000000,,2013-02-15 14:21:00,
2013-02-15 06:32:00,30.0,29.0,-100.00,ENE,71,0.0,0.0,96,0.00,,,0.00,0.000000,,2013-02-15 14:32:00,
2013-02-15 06:41:00,30.0,29.0,-100.00,ENE,71,0.0,0.0,96,0.00,,,0.00,0.000000,,2013-02-15 14:41:00,
2013-02-15 07:21:00,29.0,29.0,-100.00,ENE,71,0.0,0.0,98,0.00,,,0.00,1.000000,,2013-02-15 15:21:00,
2013-02-15 07:32:00,29.0,29.0,-100.00,ENE,71,0.0,0.0,98,0.00,,,0.00,1.000000,,2013-02-15 15:32:00,
2013-02-15 07:41:00,29.0,29.0,-100.00,ENE,71,0.0,0.0,98,0.00,,,0.00,1.000000,,2013-02-15 15:41:00,
2013-02-15 07:51:00,29.0,29.0,-100.00,ENE,71,0.0,0.0,98,0.00,,,0.00,1.000000,,2013-02-15 15:51:00,
2013-02-15 08:22:00,31.0,30.0,-100.00,SE,141,0.0,0.0,96,0.00,,,0.00,17.000000,,2013-02-15 16:22:00,
2013-02-15 08:31:00,31.0,30.0,-100.00,SE,141,0.0,0.0,96,0.00,,,0.00,17.000000,,2013-02-15 16:31:00,
2013-02-15 08:42:00,31.0,30.0,-100.00,SE,141,0.0,0.0,96,0.00,,,0.00,17.000000,,2013-02-15 16:42:00,
2013-02-15 08:51:00,31.0,30.0,-100.00,SE,141,0.0,0.0,96,0.00,,,0.00,17.000000,,2013-02-15 16:51:00,
2013-02-15 08:52:00,31.0,30.0,-100.00,SE,141,0.0,0.0,95,0.00,,,0.00,40.000000,,2013-02-15 16:52:00,
2013-02-15 09:11:00,31.0,30.0,-100.00,SE,141,0.0,0.0,95,0.00,,,0.00,40.000000,,2013-02-15 17:11:00,
2013-02-15 09:21:00,31.0,30.0,-100.00,SE,141,0.0,0.0,95,0.00,,,0.00,40.000000,,2013-02-15 17:21:00,
2013-02-15 09:32:00,31.0,30.0,-100.00,SE,141,0.0,0.0,95,0.00,,,0.00,40.000000,,2013-02-15 17:32:00,
2013-02-15 09:41:00,31.0,30.0,-100.00,SE,141,0.0,0.0,95,0.00,,,0.00,40.000000,,2013-02-15 17:41:00,
2013-02-15 09:52:00,39.0,34.0,-100.00,ENE,77,0.0,2.0,82,0.00,,,0.00,170.000000,,2013-02-15 17:52:00,
2013-02-15 10:11:00,39.0,34.0,-100.00,ENE,77,0.0,2.0,82,0.00,,,0.00,170.000000,,2013-02-15 18:11:00,
2013-02-15 10:21:00,39.0,34.0,-100.00,ENE,77,0.0,2.0,82,0.00,,,0.00,170.000000,,2013-02-15 18:21:00,
2013-02-15 10:31:00,39.0,34.0,-100.00,ENE,77,0.0,2.0,82,0.00,,,0.00,170.000000,,2013-02-15 18:31:00,
2013-02-15 10:41:00,39.0,34.0,-100.00,ENE,77,0.0,2.0,82,0.00,,,0.00,170.000000,,2013-02-15 18:41:00,
2013-02-15 11:21:00,43.0,32.0,-100.00,SSE,158,2.0,8.0,64,0.00,,,0.00,97.000000,,2013-02-15 19:21:00,
2013-02-15 11:32:00,43.0,32.0,-100.00,SSE,158,2.0,8.0,64,0.00,,,0.00,97.000000,,2013-02-15 19:32:00,
2013-02-15 11:41:00,43.0,32.0,-100.00,SSE,158,2.0,8.0,64,0.00,,,0.00,97.000000,,2013-02-15 19:41:00,
2013-02-15 11:51:00,43.0,32.0,-100.00,SSE,158,2.0,8.0,64,0.00,,,0.00,97.000000,,2013-02-15 19:51:00,
2013-02-15 11:52:00,50.0,31.0,-100.00,SSW,196,2.0,6.0,48,0.00,,,0.00,415.000000,,2013-02-15 19:52:00,
2013-02-15 12:21:00,50.0,31.0,-100.00,SSW,196,2.0,6.0,48,0.00,,,0.00,415.000000,,2013-02-15 20:21:00,
2013-02-15 12:32:00,50.0,31.0,-100.00,SSW,196,2.0,6.0,48,0.00,,,0.00,415.000000,,2013-02-15 20:32:00,
2013-02-15 12:42:00,50.0,31.0,-100.00,SSW,196,2.0,6.0,48,0.00,,,0.00,415.000000,,2013-02-15 20:42:00,
2013-02-15 13:11:00,53.0,32.0,-100.00,ESE,105,1.0,8.0,44,0.00,,,0.00,510.000000,,2013-02-15 21:11:00,
2013-02-15 13:21:00,53.0,32.0,-100.00,ESE,105,1.0,8.0,44,0.00,,,0.00,510.000000,,2013-02-15 21:21:00,
2013-02-15 13:31:00,53.0,32.0,-100.00,ESE,105,1.0,8.0,44,0.00,,,0.00,510.000000,,2013-02-15 21:31:00,
2013-02-15 13:42:00,53.0,32.0,-100.00,ESE,105,1.0,8.0,44,0.00,,,0.00,510.000000,,2013-02-15 21:42:00,
2013-02-15 13:51:00,53.0,32.0,-100.00,ESE,105,1.0,8.0,44,0.00,,,0.00,510.000000,,2013-02-15 21:51:00,
2013-02-15 14:21:00,53.0,32.0,-100.00,SSE,150,1.0,7.0,44,0.00,,,0.00,470.000000,,2013-02-15 22:21:00,
2013-02-15 14:31:00,53.0,32.0,-100.00,SSE,150,1.0,7.0,44,0.00,,,0.00,470.000000,,2013-02-15 22:31:00,
2013-02-15 14:41:00,53.0,32.0,-100.00,SSE,150,1.0,7.0,44,0.00,,,0.00,470.000000,,2013-02-15 22:41:00,
2013-02-15 14:51:00,53.0,32.0,-100.00,SSE,150,1.0,7.0,44,0.00,,,0.00,470.000000,,2013-02-15 22:51:00,
2013-02-15 14:52:00,50.0,33.0,-100.00,West,263,1.0,7.0,51,0.00,,,0.00,369.000000,,2013-02-15 22:52:00,
2013-02-15 15:21:00,50.0,33.0,-100.00,West,263,1.0,7.0,51,0.00,,,0.00,369.000000,,2013-02-15 23:21:00,
2013-02-15 15:31:00,50.0,33.0,-100.00,West,263,1.0,7.0,51,0.00,,,0.00,369.000000,,2013-02-15 23:31:00,
2013-02-15 15:41:00,50.0,33.0,-100.00,West,263,1.0,7.0,51,0.00,,,0.00,369.000000,,2013-02-15 23:41:00,
2013-02-15 16:11:00,39.0,31.0,-100.00,North,1,2.0,3.0,73,0.00,,,0.00,198.000000,,2013-02-16 00:11:00,
2013-02-15 16:21:00,39.0,31.0,-100.00,North,1,2.0,3.0,73,0.00,,,0.00,198.000000,,2013-02-16 00:21:00,
2013-02-15 16:32:00,39.0,31.0,-100.00,North,1,2.0,3.0,73,0.00,,,0.00,198.000000,,2013-02-16 00:32:00,
2013-02-15 17:21:00,34.0,30.0,-100.00,North,8,1.0,4.0,86,0.00,,,0.00,16.000000,,2013-02-16 01:21:00,
2013-02-15 17:41:00,34.0,30.0,-100.00,North,8,1.0,4.0,86,0.00,,,0.00,16.000000,,2013-02-16 01:41:00,
2013-02-15 17:51:00,34.0,30.0,-100.00,North,8,1.0,4.0,86,0.00,,,0.00,16.000000,,2013-02-16 01:51:00,
2013-02-15 17:52:00,31.0,29.0,-100.00,NNE,14,0.0,3.0,91,0.00,,,0.00,2.000000,,2013-02-16 01:52:00,
2013-02-15 18:21:00,31.0,29.0,-100.00,NNE,14,0.0,3.0,91,0.00,,,0.00,2.000000,,2013-02-16 02:21:00,
2013-02-15 18:31:00,31.0,29.0,-100.00,NNE,14,0.0,3.0,91,0.00,,,0.00,2.000000,,2013-02-16 02:31:00,
2013-02-15 18:42:00,31.0,29.0,-100.00,NNE,14,0.0,3.0,91,0.00,,,0.00,2.000000,,2013-02-16 02:42:00,
2013-02-15 18:52:00,28.0,27.0,-100.00,NNE,17,0.0,2.0,94,0.00,,,0.00,0.000000,,2013-02-16 02:52:00,
2013-02-15 19:21:00,28.0,27.0,-100.00,NNE,17,0.0,2.0,94,0.00,,,0.00,0.000000,,2013-02-16 03:21:00,
2013-02-15 19:31:00,28.0,27.0,-100.00,NNE,17,0.0,2.0,94,0.00,,,0.00,0.000000,,2013-02-16 03:31:00,
2013-02-15 19:41:00,28.0,27.0,-100.00,NNE,17,0.0,2.0,94,0.00,,,0.00,0.000000,,2013-02-16 03:41:00,
2013-02-15 20:11:00,27.0,26.0,-100.00,NNE,17,0.0,0.0,95,0.00,,,0.00,0.000000,,2013-02-16 04:11:00,
2013-02-15 20:21:00,27.0,26.0,-100.00,NNE,17,0.0,0.0,95,0.00,,,0.00,0.000000,,2013-02-16 04:21:00,
2013-02-15 20:31:00,27.0,26.0,-100.00,NNE,17,0.0,0.0,95,0.00,,,0.00,0.000000,,2013-02-16 04:31:00,
2013-02-15 20:41:00,27.0,26.0,-100.00,NNE,17,0.0,0.0,95,0.00,,,0.00,0.000000,,2013-02-16 04:41:00,
2013-02-15 20:51:00,27.0,26.0,-100.00,NNE,17,0.0,0.0,95,0.00,,,0.00,0.000000,,2013-02-16 04:51:00,
2013-02-15 20:52:00,26.0,25.0,-100.00,NNE,17,0.0,0.0,96,0.00,,,0.00,0.000000,,2013-02-16 04:52:00,
2013-02-15 21:21:00,26.0,25.0,-100.00,NNE,17,0.0,0.0,96,0.00,,,0.00,0.000000,,2013-02-16 05:21:00,
2013-02-15 21:31:00,26.0,25.0,-100.00,NNE,17,0.0,0.0,96,0.00,,,0.00,0.000000,,2013-02-16 05:31:00,
2013-02-15 21:42:00,26.0,25.0,-100.00,NNE,17,0.0,0.0,96,0.00,,,0.00,0.000000,,2013-02-16 05:42:00,
2013-02-15 22:11:00,25.0,24.0,-100.00,NNE,17,0.0,0.0,96,0.00,,,0.00,0.000000,,2013-02-16 06:11:00,
2013-02-15 22:21:00,25.0,24.0,-100.00,NNE,17,0.0,0.0,96,0.00,,,0.00,0.000000,,2013-02-16 06:21:00,
2013-02-15 22:32:00,25.0,24.0,-100.00,NNE,17,0.0,0.0,96,0.00,,,0.00,0.000000,,2013-02-16 06:32:00,
2013-02-15 22:41:00,25.0,24.0,-100.00,NNE,17,0.0,0.0,96,0.00,,,0.00,0.000000,,2013-02-16 06:41:00,
2013-02-15 22:51:00,25.0,24.0,-100.00,NNE,17,0.0,0.0,96,0.00,,,0.00,0.000000,,2013-02-16 06:51:00,
2013-02-15 22:52:00,25.0,24.0,-100.00,NNE,17,0.0,1.0,96,0.00,,,0.00,0.000000,,2013-02-16 06:52:00,
2013-02-15 23:21:00,25.0,24.0,-100.00,NNE,17,0.0,1.0,96,0.00,,,0.00,0.000000,,2013-02-16 07:21:00,
2013-02-15 23:31:00,25.0,24.0,-100.00,NNE,17,0.0,1.0,96,0.00,,,0.00,0.000000,,2013-02-16 07:31:00,
2013-02-15 23:42:00,25.0,24.0,-100.00,NNE,17,0.0,1.0,96,0.00,,,0.00,0.000000,,2013-02-16 07:42:00,
2013-02-15 23:52:00,24.0,23.0,-100.00,NNE,17,0.0,1.0,96,0.00,,,0.00,0.000000,,2013-02-16 07:52:00,